Погода в Сет-Иле

Канада     50°12′40″N   66°22′32″W
темп.,
°C
ветер,
м/с
пор.,
м/с
влажн.,
%
обл.,
%
осадки,
мм/ч
давл.,
гПа
погр.,
м
25 февраля, чт
чт2501:00−8сз338496 0.0 100274
04:00−9ссз4583100 0.0 1002176
07:00−10ссз4880100 0.0 1002302
10:00−8ссз4976100 0.0 1002597
13:00−7сз6976100 0.0 1002865
16:00−11сз8147639 0.0 1004721
19:00−16сз9167519 0.0 1008665
22:00−18сз917750 0.0 1011718
26 февраля, пт
пт2601:00−20сз614800 0.0 1012598
04:00−21сз615830 0.0 1015528
07:00−23зсз415840 0.0 1018513
10:00−17сз611750 0.0 1020673
13:00−12зсз59680 0.0 1020944
16:00−10з47730 0.0 1022787
19:00−13з468112 0.0 1025247
22:00−14з248576 0.0 1024176
27 февраля, сб
сб2701:00−14зсз138853 0.0 1022174
04:00−12з139292 0.0 1022196
07:00−10зюз259296 0.1 1020304
10:00−4ююз4887100 0.0 1018648
13:00−2ююз61084100 0.1 1015898
16:00−2ю498698 0.0 1014684
19:00−3юв129599 0.5 101492
22:00−3св1198100 0.5 101228
28 февраля, вс
вс2801:00−4ссв1295100 0.6 101245
04:00−6сз228860 0.0 101543
07:00−6ссз358557 0.0 1019148
10:00−6с367953 0.0 1019419
13:00−3с127729 0.0 1020515
16:00−3ююв228241 0.0 1020261
19:00−7вюв128354 0.0 1020170
22:00−6вюв4990100 0.1 1017441
1 марта, пн
пн101:00−6в101794100 0.8 1010757
04:00−3вюв141993100 0.9 1002841
07:00−2вюв121798100 8.2 994694
10:00−1ююв81399100 6.6 989591
13:00+1зюз6119395 7.1 989710
16:00−5зсз7127568 0.0 990826
19:00−11зсз6127678 0.0 993899
22:00−18сз6147924 0.0 994873